Regional Weather Roundup
Issued by NWS

Home | Current Version | Previous Version | Text Only | Print | Product List | Glossary Off
Versions: 1 2 3 4 5 6 7 8 9 10 11 12 13 14 15 16 17 18 19 20 21 22 23 24 25 26 27 28 29 30 31 32 33 34 35 36 37 38 39 40 41 42 43 44 45 46 47 48 49 50

000
ASUS45 KBOI 272210
RWRID

IDAHO REGIONAL WEATHER ROUNDUP
NATIONAL WEATHER SERVICE BOISE ID
400 PM MDT FRI MAY 27 2016

NOTE: "FAIR" INDICATES FEW OR NO CLOUDS BELOW 12000 FEET
WITH NO SIGNIFICANT WEATHER AND/OR OBSTRUCTIONS TO VISIBILITY

IDZ012-014-272300-
SOUTHWEST IDAHO


CITY           SKY/WX    TMP DP  RH WIND       PRES   REMARKS
BOISE          SUNNY     67  29  24 N16G25    29.94F
CALDWELL       SUNNY     69  32  25 NW14G21   29.94F
MOUNTAIN HOME  SUNNY     72  39  30 NW21G26   29.92F
$$

IDZ016-017-272300-
SOUTHCENTRAL IDAHO


CITY           SKY/WX    TMP DP  RH WIND       PRES   REMARKS
BURLEY         MOSUNNY   63  36  36 W14G21    29.91F
JEROME         SUNNY     66  33  29 W20G28    29.93F
TWIN FALLS     MOSUNNY   62  34  35 W9        29.95S
$$

IDZ019>023-272300-
SOUTHEAST IDAHO


CITY           SKY/WX    TMP DP  RH WIND       PRES   REMARKS
IDAHO FALLS    PTSUNNY   66  37  34 SW18G31   29.88F
POCATELLO      MOSUNNY   70  34  26 W17G26    29.92S
REXBURG        CLOUDY    59  41  51 VRB3      29.89R
$$

IDZ006-010-011-018-031-032-272300-
CENTRAL IDAHO MOUNTAINS


CITY           SKY/WX    TMP DP  RH WIND       PRES   REMARKS
MCCALL         SUNNY     54  32  43 W9        29.95S
HAILEY         MOSUNNY   63  34  34 SW12      29.92F
STANLEY          N/A     55  25  31 NW8       29.95R
SALMON         CLOUDY    55  43  62 N8        29.89R
CHALLIS        PTSUNNY   67  24  19 SW13G23   29.83F
$$

IDZ002-004-006-007-026-272300-
NORTHERN IDAHO


CITY           SKY/WX    TMP DP  RH WIND       PRES   REMARKS
LEWISTON       MOSUNNY   65  35  33 MISG      30.01F
LOWELL           N/A     63  41  44 S5        30.01F
COEUR D`ALENE  PTSUNNY   59  39  47 SW9       29.97F
MULLAN PASS    CLOUDY    41  29  62 MISG      30.00S
$$



USA.gov is the U.S. government's official web portal to all federal, state and local government web resources and services.